TimeMST,TemperatureF,Dew PointF,Humidity,Sea Level PressureIn,VisibilityMPH,Wind Direction,Wind SpeedMPH,Gust SpeedMPH,PrecipitationIn,Events,Conditions,WindDirDegrees,DateUTC
12:53 AM,81.0,19.9,10,29.87,10.0,ESE,5.8,-,N/A,,Clear,120,2013-06-26 07:53:00
1:53 AM,79.0,21.9,12,29.87,10.0,SE,4.6,-,N/A,,Clear,130,2013-06-26 08:53:00
2:53 AM,75.9,25.0,15,29.88,10.0,SE,9.2,-,N/A,,Clear,140,2013-06-26 09:53:00
3:53 AM,75.0,23.0,14,29.89,10.0,SSE,8.1,-,N/A,,Clear,150,2013-06-26 10:53:00
4:53 AM,72.0,21.9,15,29.91,10.0,SSE,9.2,-,N/A,,Clear,150,2013-06-26 11:53:00
5:53 AM,72.0,23.0,16,29.93,10.0,SSE,4.6,-,N/A,,Clear,160,2013-06-26 12:53:00
6:53 AM,78.1,24.1,14,29.94,10.0,Calm,Calm,-,N/A,,Clear,0,2013-06-26 13:53:00
7:53 AM,84.0,21.0,10,29.94,10.0,Calm,Calm,-,N/A,,Clear,0,2013-06-26 14:53:00
8:53 AM,88.0,18.0,8,29.95,10.0,Calm,Calm,-,N/A,,Clear,0,2013-06-26 15:53:00
9:53 AM,90.0,26.1,10,29.95,10.0,Variable,3.5,-,N/A,,Clear,0,2013-06-26 16:53:00
10:53 AM,93.9,21.9,7,29.95,10.0,Calm,Calm,-,N/A,,Clear,0,2013-06-26 17:53:00
11:53 AM,97.0,17.1,5,29.93,10.0,West,5.8,-,N/A,,Clear,260,2013-06-26 18:53:00
12:53 PM,98.1,17.1,5,29.91,10.0,WSW,4.6,-,N/A,,Clear,250,2013-06-26 19:53:00
1:53 PM,99.0,15.1,5,29.89,10.0,Variable,4.6,17.3,N/A,,Clear,0,2013-06-26 20:53:00
2:53 PM,102.0,12.0,4,29.86,10.0,NW,9.2,-,N/A,,Clear,310,2013-06-26 21:53:00
3:53 PM,102.0,9.0,4,29.84,10.0,West,11.5,17.3,N/A,,Clear,270,2013-06-26 22:53:00
4:53 PM,102.0,10.0,4,29.83,10.0,West,9.2,-,N/A,,Clear,260,2013-06-26 23:53:00
5:53 PM,100.9,12.9,4,29.82,10.0,NW,8.1,17.3,N/A,,Clear,320,2013-06-27 00:53:00
6:53 PM,100.0,14.0,4,29.82,10.0,North,9.2,-,N/A,,Clear,360,2013-06-27 01:53:00
7:53 PM,95.0,17.1,6,29.83,10.0,NNW,6.9,-,N/A,,Clear,340,2013-06-27 02:53:00
8:53 PM,91.9,19.0,7,29.84,10.0,NNW,6.9,-,N/A,,Clear,330,2013-06-27 03:53:00
9:53 PM,90.0,19.9,8,29.86,10.0,NW,4.6,-,N/A,,Clear,320,2013-06-27 04:53:00
10:53 PM,84.0,21.0,10,29.88,10.0,SW,6.9,-,N/A,,Clear,220,2013-06-27 05:53:00
11:53 PM,82.0,24.1,12,29.89,10.0,WSW,5.8,-,N/A,,Clear,250,2013-06-27 06:53:00